Regional Weather Roundup
Issued by NWS

Home | Current Version | Previous Version | Text Only | Print | Product List | Glossary Off
Versions: 1 2 3 4 5 6 7 8 9 10 11 12 13 14 15 16 17 18 19 20 21 22 23 24 25 26 27

000
ASUS45 KSLC 152110
RWRUT

UTAH REGIONAL WEATHER ROUNDUP
NATIONAL WEATHER SERVICE SALT LAKE CITY UT
200 PM MST FRI DEC 15 2017

UTZ001>011-023>025-152200-

NORTHERN UTAH

CITY           SKY/WX    TMP DP  RH WIND       PRES   REMARKS
BRIGHAM CITY   MOSUNNY   38  26  61 NE3       30.19F
HILL AFB       MOSUNNY   40  20  45 CALM      30.16F
LOGAN          MOSUNNY   32  21  64 CALM      30.19F
OGDEN          MOSUNNY   42  23  46 VRB3      30.17F
SALT LAKE CITY PTSUNNY   42  24  49 VRB5      30.16F
TOOELE VALLEY  MOSUNNY   36  28  75 N6        30.17F WCI  31
WENDOVER       MOSUNNY   30  22  72 E3        30.18F
HEBER CITY       N/A     37  18  44 CALM      30.14F
WEST JORDAN    MOSUNNY   41  24  49 S7        30.16F

$$

UTZ011>015-024>027-152200-

CENTRAL/NORTHEAST UTAH

CITY           SKY/WX    TMP DP  RH WIND       PRES   REMARKS
PROVO AIRPORT  PTSUNNY   34  25  69 W5        30.19F WCI  30
MOAB/CANYONLAN SUNNY     45  13  27 CALM      30.22F
DELTA          SUNNY     39  21  48 CALM      30.17F
PRICE          SUNNY     41  16  36 SE7       30.21F
RICHFIELD      SUNNY     45  12  26 N5        30.16F
ROOSEVELT      SUNNY     37  19  48 CALM      30.22F
VERNAL         SUNNY     40  18  41 CALM      30.18F

$$

UTZ013>016-019>022-027-152200-

SOUTHERN UTAH

CITY           SKY/WX    TMP DP  RH WIND       PRES   REMARKS
BRYCE CANYON   SUNNY     46  -4  12 SE15      30.22F
CEDAR CITY     SUNNY     55   4  12 SW13      30.15F
MILFORD        SUNNY     48  17  29 S16       30.15F
ST GEORGE      CLEAR     49  15  25 CALM      30.20F
HANKSVILLE     SUNNY     43  14  31 CALM      30.24F
KANAB          SUNNY     54  -2  10 S8        30.23F
BLANDING         N/A     42   6  23 S5        30.29F

$$

REGIONAL REPORTS     COLORADO/ARIZONA

CITY           SKY/WX    TMP DP  RH WIND       PRES   REMARKS
CRAIG, CO      SUNNY     38  12  34 NE8       30.16F WCI  32
GRAND JUNCTION SUNNY     43  11  27 SE7       30.22F
RIFLE, CO      SUNNY     40   8  26 E3        30.22F
MONTROSE, CO   SUNNY     41  10  28 N5        30.23F
CORTEZ, CO     SUNNY     48   3  15 W15       30.21F
COLORADO CITY    N/A     57   3  11 S5        30.22F
PAGE, AZ       SUNNY     47  15  27 VRB5      30.21F
GRAND CANYON   SUNNY     57 -13   5 SW9       30.23F
KINGMAN, AZ    SUNNY     63   6  10 VRB3      30.16F
FLAGSTAFF, AZ  SUNNY     55 -18   4 VRB3      30.23F

$$

REGIONAL REPORTS    NEVADA/IDAHO/WYOMING

CITY           SKY/WX    TMP DP  RH WIND       PRES   REMARKS
LAS VEGAS, NV  MOSUNNY   59  17  19 VRB6      30.16F
ELY, NY        MOSUNNY   59  -3   8 N6        30.15F
ELKO, NV       PTSUNNY   32  22  66 W3        30.14F
POCATELLO, ID  CLOUDY    24  21  88 E6        30.17F FOG     WCI  17
BURLEY, ID     PTSUNNY   34  24  67 S6        30.12F WCI  29
FORT BRIDGER,    N/A     44   0  16 W21G29    30.14F
EVANSTON, WY   CLOUDY    42   5  21 SW15      30.12F
ROCK SPRINGS,  CLOUDY    43   4  19 W22G30    30.06F

$$




USA.gov is the U.S. government's official web portal to all federal, state and local government web resources and services.